Flag for U.S.A. Weather past 2 weeks in Little Rock, Arkansas, U.S.A.

Now
54 °F

Scattered clouds.


Feels Like: 51 °F
Forecast: 35 / 54 °F
Wind: 12 mph from Southeast

Location: Adams Field

Current Time: Dec 21, 2014 at 2:29:21 PM

Latest Report: Dec 21, 2014 at 1:53 PM


Visibility: 10 mi

Pressure: 30.04 "Hg

Humidity: 49%

Dew point: 35 °F

Location of Little RockLocation

Historic Weather in Little Rock — Graph

°F

Little Rock temperature yesterday

Maximum temperature yesterday: 50 °F (at 2:53 PM)
Minimum temperature yesterday: 38 °F (at 11:53 PM)
Average temperature yesterday: 43 °F

Past Weeks' High & Low Weather Summary

 TemperatureHumidityPressure
High71 °F (Dec 15, 12:53 PM)93% (Dec 13, 5:53 AM)30.52 "Hg (Dec 13, 5:53 AM)
Low31 °F (Dec 10, 4:53 AM)31% (Dec 15, 2:53 PM)29.74 "Hg (Dec 15, 1:53 PM)
Average46 °F72%30.25 "Hg
* Reported Dec 6 12:53 PM — Dec 21 12:53 PM, Little Rock, Weather by CustomWeather, © 2014

Note: Actual official high and low records may vary slightly from our data, if they occured in-between our weather recording intervals... More about our weather records

Advertising

Little Rock weather history for previous 24 hours

 ConditionsComfort  
Time TempWeatherWind HumidityBarometerVisibility
12:53 PM
Dec 21
53 °FScattered clouds.10 mph48%30.09 "Hg10 mi
11:53 AM51 °FScattered clouds.10 mph54%30.12 "Hg10 mi
10:53 AM48 °FScattered clouds.3 mph59%30.19 "Hg10 mi
9:53 AM44 °FScattered clouds.3 mph68%30.20 "Hg10 mi
8:53 AM40 °FFog.6 mph83%30.21 "Hg6 mi
7:53 AM35 °FFog.No wind88%30.22 "Hg6 mi
6:53 AM35 °FFog.3 mph85%30.22 "Hg3 mi
5:53 AM34 °FFog.No wind88%30.21 "Hg5 mi
4:53 AM34 °FFog.No wind85%30.21 "Hg5 mi
3:53 AM34 °FFog.No wind88%30.21 "Hg5 mi
2:53 AM35 °FFog.No wind88%30.23 "Hg5 mi
1:53 AM35 °FFog.No wind88%30.23 "Hg6 mi
12:53 AM35 °FFog.3 mph88%30.24 "Hg6 mi
11:53 PM
Dec 20
38 °FFog.No wind86%30.26 "Hg6 mi
10:53 PM39 °FPassing clouds.No wind82%30.27 "Hg7 mi
9:53 PM39 °FPassing clouds.No wind82%30.27 "Hg7 mi
8:53 PM40 °FPassing clouds.No wind83%30.27 "Hg10 mi
7:53 PM44 °FOvercast.3 mph73%30.26 "Hg10 mi
6:53 PM42 °FPassing clouds.3 mph76%30.26 "Hg10 mi
5:53 PM44 °FPassing clouds.3 mph71%30.24 "Hg10 mi
4:53 PM48 °FOvercast.5 mph63%30.24 "Hg10 mi
3:53 PM49 °FOvercast.3 mph59%30.24 "Hg10 mi
2:53 PM50 °FPartly sunny.3 mph54%30.22 "Hg10 mi
Weather by CustomWeather, © 2014

See weather overviewHow to use our weather pages